AIC922 VABB-VOML

Flight info

Callsign AIC922
Flight time 1h 2m
Altitude 33000
Route VEVAK2A MABTA Q13 IKATI W17 MML
Aircraft A21N/M-SDE2E3FGHIRWXY/LB1

Departure

Time 2026-05-04 17:02
Airport Chhatrapati Shivaji Maharaj International Airport (VABB)

Arrival

Time 2026-05-04 18:05
Airport Mangaluru International Airport (VOML)
Time Latitude Longitude Altitude Speed Heading
2026-05-04 15:56 19.09320 72.87207 49 ft 0 kts 339°
2026-05-04 16:40 19.09315 72.87209 49 ft 2 kts 339°
2026-05-04 16:41 19.09287 72.87221 49 ft 2 kts 335°
2026-05-04 16:41 19.09244 72.87233 49 ft 2 kts 24°
2026-05-04 16:42 19.09234 72.87195 44 ft 2 kts 119°
2026-05-04 16:43 19.09241 72.87179 46 ft 0 kts 106°
2026-05-04 16:43 19.09244 72.87172 49 ft 1 kts 99°
2026-05-04 16:43 19.09245 72.87163 49 ft 1 kts 71°
2026-05-04 16:44 19.09241 72.87197 43 ft 9 kts 107°
2026-05-04 16:45 19.09238 72.87225 46 ft 0 kts 95°
2026-05-04 16:47 19.09137 72.87265 49 ft 18 kts 177°
2026-05-04 16:47 19.09046 72.87333 50 ft 8 kts 85°
2026-05-04 16:48 19.09053 72.87447 49 ft 6 kts 89°
2026-05-04 16:48 19.09054 72.87509 49 ft 11 kts 89°
2026-05-04 16:49 19.09055 72.87702 49 ft 16 kts 90°
2026-05-04 16:49 19.09058 72.87973 49 ft 14 kts 88°
2026-05-04 16:50 19.09010 72.88053 48 ft 2 kts 180°
2026-05-04 16:50 19.09009 72.88053 48 ft 0 kts 180°
2026-05-04 17:00 19.08920 72.88025 47 ft 15 kts 221°
2026-05-04 17:00 19.08887 72.87945 47 ft 0 kts 269°
2026-05-04 17:01 19.08884 72.87828 48 ft 51 kts 269°
2026-05-04 17:02 19.08849 72.86049 210 ft 167 kts 267°
2026-05-04 17:02 19.08840 72.83431 1696 ft 175 kts 266°
2026-05-04 17:03 19.08820 72.82117 2434 ft 185 kts 266°
2026-05-04 17:03 19.08786 72.80681 2908 ft 204 kts 267°
2026-05-04 17:03 19.08709 72.77389 3807 ft 246 kts 268°
2026-05-04 17:04 19.08528 72.73592 5298 ft 262 kts 255°
2026-05-04 17:04 19.06096 72.70812 6928 ft 279 kts 201°
2026-05-04 17:05 19.02195 72.71335 8402 ft 301 kts 148°
2026-05-04 17:05 18.98684 72.73812 8816 ft 303 kts 159°
2026-05-04 17:06 18.94619 72.74681 9121 ft 298 kts 180°
2026-05-04 17:06 18.92515 72.74724 9744 ft 301 kts 183°
2026-05-04 17:07 18.88254 72.74604 10989 ft 315 kts 185°
2026-05-04 17:07 18.86781 72.74549 11394 ft 320 kts 185°
2026-05-04 17:07 18.83756 72.74440 12057 ft 336 kts 184°
2026-05-04 17:07 18.81369 72.74364 12563 ft 346 kts 184°
2026-05-04 17:08 18.78937 72.74346 13062 ft 357 kts 178°
2026-05-04 17:08 18.73978 72.75451 14035 ft 375 kts 161°
2026-05-04 17:08 18.71481 72.76384 14490 ft 378 kts 161°
2026-05-04 17:09 18.69008 72.77308 14954 ft 380 kts 161°
2026-05-04 17:09 18.66515 72.78215 15412 ft 382 kts 162°
2026-05-04 17:09 18.63976 72.79114 15905 ft 384 kts 162°
2026-05-04 17:10 18.58848 72.80893 16884 ft 390 kts 163°
2026-05-04 17:10 18.51043 72.83570 18372 ft 399 kts 163°
2026-05-04 17:11 18.48389 72.84484 18820 ft 401 kts 163°
2026-05-04 17:11 18.45744 72.85398 19274 ft 404 kts 163°
2026-05-04 17:11 18.40359 72.87262 20207 ft 410 kts 163°
2026-05-04 17:12 18.37624 72.88209 20686 ft 413 kts 163°
2026-05-04 17:12 18.32164 72.90100 21669 ft 416 kts 163°
2026-05-04 17:13 18.23845 72.92977 23201 ft 419 kts 163°
2026-05-04 17:14 18.15534 72.95849 24537 ft 419 kts 164°
2026-05-04 17:14 18.12797 72.96794 24986 ft 419 kts 164°
2026-05-04 17:14 18.07222 72.98729 25898 ft 416 kts 163°
2026-05-04 17:15 18.04533 72.99765 26358 ft 415 kts 161°
2026-05-04 17:15 17.99169 73.01982 27316 ft 411 kts 160°
2026-05-04 17:16 17.93857 73.04180 28055 ft 413 kts 161°
2026-05-04 17:16 17.85658 73.07507 28338 ft 435 kts 161°
2026-05-04 17:17 17.82777 73.08668 28340 ft 444 kts 161°
2026-05-04 17:17 17.73892 73.12249 28343 ft 467 kts 160°
2026-05-04 17:18 17.70854 73.13474 28344 ft 466 kts 160°
2026-05-04 17:19 17.58779 73.18340 28337 ft 465 kts 160°
2026-05-04 17:20 17.46677 73.23207 28336 ft 465 kts 160°
2026-05-04 17:20 17.37611 73.26848 28333 ft 465 kts 160°
2026-05-04 17:21 17.25914 73.31540 28956 ft 466 kts 160°
2026-05-04 17:22 17.22869 73.32761 29240 ft 466 kts 160°
2026-05-04 17:22 17.19858 73.33968 29528 ft 466 kts 160°
2026-05-04 17:23 17.11004 73.38246 30328 ft 468 kts 149°
2026-05-04 17:23 17.08270 73.40040 30570 ft 469 kts 147°
2026-05-04 17:23 17.02794 73.43759 31046 ft 471 kts 147°
2026-05-04 17:24 17.00041 73.45609 31231 ft 472 kts 148°
2026-05-04 17:24 16.91645 73.51184 31797 ft 477 kts 148°
2026-05-04 17:25 16.88858 73.53024 31990 ft 478 kts 148°
2026-05-04 17:25 16.83203 73.56713 32374 ft 480 kts 150°
2026-05-04 17:26 16.77312 73.60042 32773 ft 481 kts 153°
2026-05-04 17:26 16.68427 73.64873 33367 ft 482 kts 153°
2026-05-04 17:27 16.62458 73.68122 33774 ft 482 kts 153°
2026-05-04 17:27 16.56517 73.71362 34143 ft 481 kts 153°
2026-05-04 17:28 16.50590 73.74598 34505 ft 479 kts 153°
2026-05-04 17:29 16.41769 73.79412 34922 ft 477 kts 153°
2026-05-04 17:29 16.32917 73.84086 34924 ft 476 kts 155°
2026-05-04 17:31 16.17983 73.91580 34919 ft 475 kts 155°
2026-05-04 17:32 16.03151 73.99047 34914 ft 473 kts 155°
2026-05-04 17:33 15.91312 74.05005 34911 ft 473 kts 155°
2026-05-04 17:34 15.80446 74.10465 34910 ft 473 kts 155°
2026-05-04 17:35 15.64677 74.18380 34921 ft 473 kts 155°
2026-05-04 17:36 15.59754 74.20849 34920 ft 473 kts 155°
2026-05-04 17:36 15.53826 74.23819 34922 ft 473 kts 155°
2026-05-04 17:37 15.47902 74.26784 34920 ft 473 kts 155°
2026-05-04 17:37 15.41966 74.29754 34923 ft 472 kts 155°
2026-05-04 17:38 15.36055 74.32709 34926 ft 472 kts 155°
2026-05-04 17:38 15.30125 74.35672 34926 ft 472 kts 155°
2026-05-04 17:39 15.21279 74.40090 34926 ft 472 kts 155°
2026-05-04 17:39 15.15367 74.43039 34924 ft 472 kts 155°
2026-05-04 17:40 15.09424 74.46004 34925 ft 472 kts 155°
2026-05-04 17:40 15.03535 74.48962 34924 ft 472 kts 155°
2026-05-04 17:41 14.97622 74.51938 34926 ft 472 kts 155°
2026-05-04 17:41 14.91763 74.54882 34924 ft 472 kts 155°
2026-05-04 17:42 14.85823 74.57866 34924 ft 471 kts 155°
2026-05-04 17:42 14.79932 74.60822 34795 ft 468 kts 155°
2026-05-04 17:43 14.77038 74.62274 34304 ft 467 kts 155°
2026-05-04 17:43 14.74103 74.63744 33528 ft 469 kts 155°
2026-05-04 17:43 14.71149 74.65223 32628 ft 470 kts 155°
2026-05-04 17:43 14.68208 74.66696 31713 ft 472 kts 155°
2026-05-04 17:44 14.65228 74.68188 30781 ft 475 kts 155°
2026-05-04 17:44 14.62248 74.69680 29995 ft 474 kts 155°
2026-05-04 17:44 14.59316 74.71148 29267 ft 469 kts 155°
2026-05-04 17:44 14.56373 74.72620 28565 ft 463 kts 155°
2026-05-04 17:45 14.53483 74.74066 27865 ft 459 kts 155°
2026-05-04 17:45 14.50656 74.75446 27188 ft 454 kts 158°
2026-05-04 17:45 14.47689 74.76576 26501 ft 449 kts 165°
2026-05-04 17:45 14.44693 74.77323 25837 ft 444 kts 172°
2026-05-04 17:46 14.41652 74.77823 25188 ft 440 kts 173°
2026-05-04 17:46 14.38636 74.78292 24579 ft 436 kts 173°
2026-05-04 17:46 14.35645 74.78771 23981 ft 432 kts 173°
2026-05-04 17:46 14.32716 74.79260 23356 ft 428 kts 172°
2026-05-04 17:47 14.29780 74.79765 22695 ft 423 kts 172°
2026-05-04 17:47 14.26914 74.80265 22066 ft 418 kts 172°
2026-05-04 17:47 14.24036 74.80771 21417 ft 413 kts 171°
2026-05-04 17:47 14.21231 74.81264 20819 ft 408 kts 171°
2026-05-04 17:48 14.18466 74.81747 20226 ft 403 kts 171°
2026-05-04 17:48 14.15721 74.82223 19636 ft 399 kts 171°
2026-05-04 17:48 14.12976 74.82696 19062 ft 394 kts 170°
2026-05-04 17:48 14.10303 74.83156 18507 ft 390 kts 170°
2026-05-04 17:49 14.07619 74.83619 17875 ft 386 kts 169°
2026-05-04 17:49 14.05003 74.84064 17208 ft 383 kts 169°
2026-05-04 17:49 14.02397 74.84506 16532 ft 381 kts 169°
2026-05-04 17:49 13.99774 74.84956 15887 ft 378 kts 169°
2026-05-04 17:50 13.97171 74.85407 15250 ft 376 kts 169°
2026-05-04 17:50 13.94615 74.85854 14641 ft 374 kts 169°
2026-05-04 17:50 13.92073 74.86298 14052 ft 371 kts 169°
2026-05-04 17:50 13.89515 74.86746 13438 ft 369 kts 169°
2026-05-04 17:51 13.87013 74.87183 12844 ft 365 kts 169°
2026-05-04 17:51 13.84506 74.87618 12297 ft 361 kts 170°
2026-05-04 17:51 13.82058 74.87992 11737 ft 357 kts 172°
2026-05-04 17:51 13.79601 74.88323 11359 ft 348 kts 173°
2026-05-04 17:52 13.77268 74.88624 11204 ft 333 kts 173°
2026-05-04 17:52 13.75008 74.88912 11072 ft 318 kts 173°
2026-05-04 17:52 13.72866 74.89187 10807 ft 309 kts 173°
2026-05-04 17:52 13.70733 74.89465 10474 ft 303 kts 173°
2026-05-04 17:53 13.68674 74.89737 10146 ft 297 kts 173°
2026-05-04 17:53 13.66623 74.90010 9827 ft 293 kts 173°
2026-05-04 17:53 13.64619 74.90278 9483 ft 293 kts 173°
2026-05-04 17:53 13.62589 74.90548 9130 ft 292 kts 173°
2026-05-04 17:54 13.60588 74.90814 8788 ft 292 kts 173°
2026-05-04 17:54 13.58554 74.91083 8439 ft 291 kts 173°
2026-05-04 17:54 13.56561 74.91348 8104 ft 291 kts 173°
2026-05-04 17:54 13.54568 74.91613 7769 ft 290 kts 173°
2026-05-04 17:55 13.52550 74.91883 7435 ft 289 kts 173°
2026-05-04 17:55 13.50557 74.92149 7109 ft 289 kts 173°
2026-05-04 17:55 13.48567 74.92415 6779 ft 289 kts 173°
2026-05-04 17:55 13.46593 74.92680 6460 ft 288 kts 173°
2026-05-04 17:56 13.44601 74.92947 6122 ft 285 kts 173°
2026-05-04 17:56 13.42665 74.93209 5776 ft 272 kts 173°
2026-05-04 17:56 13.40840 74.93458 5451 ft 264 kts 173°
2026-05-04 17:56 13.39030 74.93707 5113 ft 258 kts 173°
2026-05-04 17:57 13.37270 74.93946 4779 ft 254 kts 174°
2026-05-04 17:57 13.35518 74.94185 4441 ft 253 kts 174°
2026-05-04 17:57 13.33770 74.94421 4097 ft 251 kts 174°
2026-05-04 17:57 13.32019 74.94655 3766 ft 260 kts 174°
2026-05-04 17:58 13.30210 74.94896 3440 ft 258 kts 174°
2026-05-04 17:58 13.28447 74.95131 3266 ft 258 kts 174°
2026-05-04 17:58 13.26671 74.95370 3099 ft 257 kts 174°
2026-05-04 17:58 13.24886 74.95608 2932 ft 257 kts 174°
2026-05-04 17:59 13.23133 74.95842 2756 ft 256 kts 174°
2026-05-04 17:59 13.21349 74.96078 2673 ft 254 kts 174°
2026-05-04 17:59 13.17826 74.96549 2667 ft 257 kts 174°
2026-05-04 18:00 13.16086 74.96780 2654 ft 245 kts 174°
2026-05-04 18:00 13.14428 74.97006 2648 ft 238 kts 174°
2026-05-04 18:00 13.12796 74.97225 2654 ft 238 kts 174°
2026-05-04 18:00 13.11153 74.97443 2647 ft 238 kts 174°
2026-05-04 18:01 13.09499 74.97662 2644 ft 239 kts 174°
2026-05-04 18:01 13.07845 74.97881 2524 ft 239 kts 174°
2026-05-04 18:01 13.06208 74.98101 2394 ft 239 kts 174°
2026-05-04 18:02 13.02811 74.98455 1993 ft 237 kts 191°
2026-05-04 18:02 13.01373 74.97879 1991 ft 215 kts 220°
2026-05-04 18:02 13.00416 74.96808 1987 ft 191 kts 236°
2026-05-04 18:02 12.99717 74.95735 1928 ft 178 kts 239°
2026-05-04 18:03 12.99071 74.94668 1677 ft 174 kts 240°
2026-05-04 18:03 12.98445 74.93634 1325 ft 163 kts 240°
2026-05-04 18:03 12.97884 74.92681 1041 ft 151 kts 239°
2026-05-04 18:03 12.97339 74.91796 825 ft 143 kts 238°
2026-05-04 18:04 12.96798 74.90919 638 ft 145 kts 240°
2026-05-04 18:04 12.96285 74.90040 488 ft 146 kts 239°
2026-05-04 18:04 12.95258 74.88320 323 ft 119 kts 237°
2026-05-04 18:05 12.94902 74.87740 320 ft 55 kts 239°
2026-05-04 18:05 12.94880 74.87666 322 ft 0 kts 289°
2026-05-04 18:05 12.94882 74.87664 322 ft 2 kts 293°
2026-05-04 18:05 12.94911 74.87641 322 ft 8 kts 326°
2026-05-04 18:06 12.95025 74.87560 323 ft 8 kts 314°
2026-05-04 18:06 12.95022 74.87523 322 ft 0 kts 234°
2026-05-04 18:06 12.95008 74.87503 323 ft 6 kts 236°
2026-05-04 18:07 12.94973 74.87449 322 ft 12 kts 237°
2026-05-04 18:07 12.94936 74.87386 320 ft 6 kts 241°
2026-05-04 18:07 12.94947 74.87360 320 ft 6 kts 323°
2026-05-04 18:07 12.94976 74.87344 323 ft 1 kts 332°
2026-05-04 18:08 12.94985 74.87338 323 ft 2 kts 330°
2026-05-04 18:08 12.94987 74.87337 324 ft 0 kts 329°